Cannonsburg, MI (49317)

8:21 AM EDT on August 04, 2015 (GMT -0400)
Cannon Twp-Tillicum Farms | | Change Station
CLOSE
Current Station
Personal Weather Station
Location: Rockford, MI
Elevation: 873 ft
Nearby Weather Stations

Elev 873 ft 43.09 °N, 85.47 °W | Updated 10 minutes ago

Clear
Clear
58.4 °F
Feels Like 58.4 °F
N
0.0
Wind Variable Wind from NW

Today
High -- | Low -- °F
--% Chance of Precip.
Yesterday
High -- | Low -- °F
Precip. -- in
6:35 AM 8:59 PM
Waning Gibbous, 78% visible
Pressure 29.92 in
Visibility 10.0 miles
Clouds Few 20000 ft
Dew Point 57 °F
Humidity 94%
Rainfall 0.00 in
Snow Depth Not available.
UV 0.0 out of 12
Pollen 7.20 out of 12
Air Quality Not available.
Flu Activity Not available.
METAR KGRR 041153Z 25005KT 10SM FEW200 18/15 A2993 RMK AO2 SLP130 T01780150 10178 20156 53013

More Conditions Fewer Conditions

Pressure 29.92 in
Visibility 10.0 miles
Clouds Few 20000 ft
Dew Point 57 °F
Humidity 94%
Rainfall 0.00 in
Snow Depth Not available.
UV 0.0 out of 12
Pollen 7.20 out of 12
Air Quality Not available.
Flu Activity Not available.
METAR KGRR 041153Z 25005KT 10SM FEW200 18/15 A2993 RMK AO2 SLP130 T01780150 10178 20156 53013

More Conditions Fewer Conditions

10-Day Weather Forecast

×

Almanac

Astronomy

Aug. 04, 2015 Rise Set
Actual Time
Civil Twilight
Nautical Twilight
Astronomical Twilight
Moon
Length of Visible Light
Length of Day
Tomorrow will be .
, % of the Moon is Illuminated

Today's Extremes

State Highs State Lows

Community

WunderPhotos

Upload Photos

1,843,910 photos uploaded!

WunderBlogs® & News

Nearby

Air Quality

  Air Quality AQ Index Pollutant
Not available.

Snow Depth

Station Depth Elevation

Earthquake Activity

City Distance Mag. Time & Date
Minimum magnitude displayed is 2.5.

Coastal Water Temperatures

Place Temperature

Stations

Nearby Weather Stations

Station Location Temp. Windchill Dew Point Humidity Wind Precip. Elev Updated Type